EHI
1 1 0 0 0 0 0 0 0 0 0 0 0 0 0 0 1 2 6 11 14 13 8 4 1 0 0 0 0 1 0 0 0 0 0 0 0 0 0 1 3 3 3
1 0 0 0 0 0 0 0 0 0 0 0 0 0 0 0 0 1 3 7 12 12 9 4 1 0 1 1 1 1 0 0 0 0 0 0 1 1 1 1 2 2 1
0 0 0 0 0 0 0 0 0 0 0 0 0 0 0 0 0 0 1 4 7 9 9 5 2 1 1 1 1 0 0 0 0 0 0 0 1 1 1 1 1 1 0
0 0 0 0 0 0 0 0 0 0 0 0 0 0 0 0 0 0 1 1 2 4 4 4 2 1 1 1 0 0 0 0 0 0 0 0 1 1 0 0 0 0 0
0 0 0 0 0 0 0 0 0 0 0 0 0 0 0 0 0 0 0 0 0 0 1 1 1 1 1 0 0 0 0 0 0 0 0 0 0 0 0 0 0 0 0
0 0 0 0 0 0 0 0 0 0 0 0 0 0 0 0 0 0 0 0 0 0 0 0 0 0 0 0 0 0 0 0 0 0 0 0 0 0 0 0 0 0 0
0 0 0 0 0 0 0 0 0 0 0 0 0 0 0 0 0 0 0 0 0 0 0 0 0 0 0 0 0 0 0 0 0 0 0 0 0 0 0 0 0 0 0
0 0 0 0 0 0 0 0 0 0 0 0 0 0 0 0 0 0 0 0 0 0 0 0 0 0 0 0 0 0 0 0 0 0 0 0 0 0 0 0 0 0 0
0 0 0 0 0 0 0 0 0 0 0 0 0 0 0 0 0 0 0 0 0 0 0 0 0 0 0 0 0 0 0 0 0 0 0 0 0 0 0 0 0 0 0
0 0 0 0 0 0 0 0 0 0 0 0 0 0 0 0 0 0 0 0 0 0 0 0 0 0 0 0 0 0 0 0 0 0 0 0 0 0 0 0 0 0 0
0 0 0 0 0 0 0 0 0 0 0 0 0 0 0 0 0 0 0 0 0 0 0 0 0 0 0 0 0 0 0 0 0 0 0 0 0 0 0 0 0 0 0
0 0 0 0 0 0 0 0 0 0 0 0 0 0 0 0 0 0 0 0 0 0 0 0 0 0 0 0 0 0 0 0 0 0 0 0 0 0 0 0 0 0 0
0 0 0 0 0 0 0 0 0 0 0 0 0 0 0 0 0 0 0 0 0 0 0 0 0 0 0 0 0 0 0 0 0 0 0 0 0 0 0 0 0 0 0
0 0 0 0 0 0 0 0 0 0 0 0 0 0 0 0 0 0 0 0 0 0 0 0 0 0 0 0 0 0 0 0 0 0 0 0 0 0 0 0 0 0 0
0 0 0 0 0 0 0 0 0 0 0 0 0 0 0 0 0 0 0 0 0 0 0 0 0 0 0 0 0 0 0 0 0 0 0 0 0 0 0 0 0 0 0
0 0 0 0 0 0 0 0 0 0 0 0 0 0 0 0 0 0 0 0 0 0 0 0 0 0 0 0 0 0 0 0 0 0 0 0 0 0 0 0 0 0 0
0 0 0 0 0 0 0 0 0 0 0 0 0 0 0 0 0 0 0 0 0 0 0 0 0 0 0 0 0 0 0 0 0 0 0 0 0 0 0 0 0 0 0
0 0 0 0 0 0 0 0 0 0 0 0 0 0 0 0 0 0 0 0 0 0 0 0 0 0 0 0 0 0 0 0 0 0 0 0 0 0 0 0 0 0 0
0 0 0 0 0 0 0 0 0 0 0 0 0 0 0 0 0 0 0 0 0 0 0 0 0 0 0 0 0 0 0 0 0 0 0 0 0 0 0 0 0 0 0
0 0 0 0 0 0 0 0 0 0 0 0 0 0 0 0 0 0 0 0 0 0 0 0 0 0 0 0 0 0 0 0 0 0 0 0 0 0 0 0 0 0 0
0 0 0 0 0 0 0 0 0 0 0 0 0 0 0 0 0 0 0 0 0 0 0 0 0 0 0 0 0 0 0 0 0 0 0 0 0 0 0 0 0 0 0
0 0 0 0 0 0 0 0 0 0 0 0 0 0 0 0 0 0 0 0 0 0 0 0 0 0 0 0 0 0 0 0 0 0 0 0 0 0 0 0 0 0 0
0 0 0 0 0 0 0 0 0 0 0 0 0 0 0 0 0 0 0 0 0 0 0 0 0 0 0 0 0 0 0 0 0 0 0 0 0 0 0 0 0 0 0
0 0 0 0 0 0 0 0 0 0 0 0 0 0 0 0 0 0 0 0 0 0 0 0 0 0 0 0 0 0 0 0 0 0 0 0 0 0 0 0 0 0 0
0 0 0 0 0 0 0 0 0 0 0 0 0 0 0 0 0 0 0 0 0 0 0 0 0 0 0 0 0 0 0 0 0 0 0 0 0 0 0 0 0 0 0
0 0 0 0 0 0 0 0 0 0 0 0 0 0 0 0 0 0 0 0 0 0 0 0 0 0 0 0 0 0 0 0 0 0 0 0 0 0 0 0 0 0 0
Wind_Speed
4 3 2 2 2 1 1 1 0 0 0 0 1 2 2 2 2 2 1 5 6 5 6 7 6 6 5 4 4 3 3 2 1 2 2 2 1 1 0 0 1 1 2
4 3 3 2 2 2 2 1 1 1 1 1 2 2 2 2 2 2 1 2 3 4 5 6 6 6 5 5 4 4 3 3 3 3 3 4 4 4 4 4 4 3 3
5 4 3 3 2 2 2 2 2 2 2 2 3 3 2 2 2 2 2 2 1 2 3 4 4 5 5 5 4 4 3 3 4 4 5 5 6 6 6 6 6 5 5
6 4 4 3 3 2 2 2 2 2 2 3 3 3 3 2 3 2 2 2 1 1 0 2 3 4 4 4 4 4 4 4 4 4 5 6 6 6 6 6 6 6 6
6 4 3 3 3 3 2 3 2 2 2 3 3 3 3 3 3 2 2 2 2 2 2 1 1 2 3 3 3 3 4 4 4 4 4 4 4 5 5 4 4 4 5
5 4 3 3 4 3 3 3 3 3 2 2 3 3 3 3 3 3 3 2 2 2 2 2 2 2 1 1 2 3 4 4 4 4 4 4 3 4 3 2 2 2 2
4 5 4 3 3 3 4 5 3 4 3 1 2 2 2 4 4 3 3 3 3 3 3 3 2 2 2 4 4 5 6 6 6 6 6 6 6 5 4 3 2 2 3
3 3 4 3 3 3 4 4 3 3 2 1 2 2 1 1 2 4 3 3 4 3 4 4 3 2 2 2 4 6 7 8 9 9 8 7 7 7 7 7 6 6 7
5 4 5 4 4 4 3 3 3 4 3 2 2 2 3 3 1 2 3 3 3 3 3 3 5 4 4 2 2 4 6 7 8 10 10 9 8 8 9 9 10 10 11
6 6 6 6 5 4 4 3 3 2 4 3 2 3 3 2 2 2 1 2 3 5 5 4 5 5 5 4 4 7 8 8 8 8 8 8 8 9 11 12 13 14 15
7 7 7 7 7 6 6 6 5 5 3 3 2 2 3 3 3 2 1 1 2 3 4 4 4 4 6 5 4 7 9 9 9 9 9 9 9 10 12 14 15 17 18
6 7 8 7 7 7 7 6 7 8 6 6 5 3 2 2 2 2 2 0 1 1 2 3 3 4 4 5 7 11 11 11 11 11 11 11 12 14 15 17 19 20 21
5 7 7 7 7 7 7 7 8 8 7 7 6 4 4 3 2 2 2 1 1 1 2 1 1 2 4 4 5 11 11 12 12 13 13 14 15 16 18 19 21 22 22
6 7 8 9 9 8 9 8 7 7 7 7 7 5 4 4 2 2 1 1 0 1 2 2 2 2 3 4 6 11 8 13 14 14 15 15 16 18 19 20 21 22 22
7 9 10 10 10 9 9 8 7 7 6 6 6 5 4 3 3 2 2 1 1 1 2 3 2 2 4 5 8 7 7 12 15 16 16 16 16 18 19 20 21 21 22
9 10 10 10 10 9 8 8 7 6 7 5 3 4 3 2 2 2 1 1 1 1 2 2 3 5 6 7 10 8 9 15 15 16 16 16 17 18 19 20 20 21 22
9 10 9 9 9 9 7 7 7 6 6 5 4 4 3 2 1 1 1 0 1 2 3 4 3 4 6 8 9 8 8 8 9 15 17 18 18 19 19 19 20 20 20
9 9 9 9 9 8 7 7 7 6 5 5 4 3 3 2 1 0 1 1 2 3 3 5 5 5 7 9 10 10 9 8 8 14 17 18 18 18 18 17 17 17 17
9 8 8 8 7 7 7 6 6 5 4 4 3 3 3 2 2 2 2 2 2 2 3 4 6 5 5 6 8 8 9 8 9 10 14 15 16 17 17 17 16 16 15
8 7 7 6 6 6 6 5 5 5 5 4 4 4 4 3 3 3 2 2 2 3 4 5 6 6 6 7 5 7 8 8 9 9 11 11 14 16 17 17 17 17 15
6 5 5 5 4 4 4 5 4 5 5 5 6 6 6 6 6 4 3 3 3 4 5 6 7 7 8 7 7 5 8 9 10 7 6 8 9 9 10 12 14 15 15
5 4 4 3 3 3 4 6 5 4 5 5 6 7 7 6 9 8 8 8 8 7 8 7 7 8 10 9 8 7 8 8 7 4 5 9 8 9 8 8 12 15 15
3 3 2 2 2 3 5 5 6 3 4 5 5 6 6 6 8 6 8 12 12 13 12 9 9 10 10 9 8 10 9 8 9 8 6 8 8 8 8 8 13 14 14
2 2 2 2 2 4 5 5 6 4 4 5 5 6 6 8 7 8 8 9 10 10 10 7 8 10 10 10 9 8 8 8 9 7 5 6 7 8 9 9 10 12 13
2 2 2 2 2 4 6 6 5 4 5 7 7 7 7 8 10 11 9 9 11 10 9 9 10 12 14 14 10 5 5 5 7 7 3 4 5 8 8 7 7 10 12
2 2 3 3 3 3 6 7 6 3 5 7 8 8 9 9 11 12 8 8 10 10 10 10 9 9 7 7 6 4 4 4 5 6 3 3 5 5 5 4 7 7 8
Wind_Direction
183 191 201 202 208 198 196 201 215 312 354 339 198 180 180 170 161 155 177 183 180 182 180 179 176 175 171 166 157 146 136 130 134 135 138 130 125 127 146 218 246 252 262
181 187 198 205 211 203 194 182 181 149 68 71 82 106 131 129 124 123 115 149 163 170 174 176 176 174 170 160 151 141 129 121 110 103 98 95 90 86 83 79 71 63 53
185 183 189 202 204 184 168 143 131 107 95 82 71 68 79 90 105 99 90 80 97 143 157 163 165 164 166 165 161 154 139 122 112 106 100 95 88 84 81 76 70 64 57
182 178 184 191 175 155 149 144 132 106 90 86 75 55 54 59 66 77 78 73 65 59 100 161 163 163 166 172 172 165 151 135 126 119 112 105 97 90 84 77 69 60 52
180 175 179 170 155 143 144 151 119 117 117 108 98 70 50 47 39 51 61 61 50 44 26 11 95 157 177 184 186 177 166 159 150 144 137 131 120 111 100 86 71 58 47
170 159 148 148 148 138 135 130 113 83 92 107 95 72 48 40 42 35 25 30 27 33 39 31 20 358 327 275 244 229 216 208 201 196 194 187 172 157 144 124 93 51 19
149 146 142 137 134 140 143 133 116 101 76 69 93 63 37 43 52 40 29 35 34 28 39 43 33 20 356 343 320 287 267 255 246 238 233 227 215 202 201 209 227 262 293
103 123 126 121 117 117 117 123 127 118 87 41 126 130 136 16 32 31 32 46 43 37 39 40 36 26 3 354 333 314 295 285 276 267 260 251 237 227 230 239 251 262 273
83 84 93 102 101 106 115 109 121 137 136 84 40 152 166 193 136 29 28 37 42 47 36 31 34 26 19 15 351 334 325 316 295 282 277 271 258 251 253 258 264 270 276
75 79 86 89 87 84 90 87 80 103 124 125 78 46 60 98 143 127 26 19 42 50 41 39 36 33 30 25 17 12 4 355 335 315 304 292 281 272 269 271 274 277 279
64 70 78 84 85 81 78 73 70 68 77 101 102 94 76 58 54 120 139 7 23 39 39 39 42 39 32 24 11 12 8 0 351 337 322 312 301 292 286 282 282 283 284
65 64 72 75 77 79 76 76 75 74 73 79 76 69 84 90 75 85 116 94 346 9 24 32 39 36 29 17 7 3 359 353 344 334 323 312 303 296 291 289 287 285 284
73 64 69 72 72 74 74 73 74 73 73 78 78 73 67 63 69 87 102 101 332 333 343 2 14 19 19 1 344 340 338 332 326 317 309 301 295 292 289 287 286 285 285
77 75 72 69 68 69 72 71 72 70 71 74 75 73 70 55 50 68 106 125 341 316 307 294 308 316 345 334 318 322 317 316 311 303 297 293 290 288 287 286 285 285 284
79 74 74 72 68 66 68 70 71 69 72 71 75 77 74 57 51 53 69 107 160 276 292 302 299 295 317 313 305 305 302 302 299 296 294 291 288 287 285 284 282 281 281
77 76 72 72 69 66 67 70 69 65 71 64 71 75 71 66 59 57 67 85 143 199 257 282 277 292 303 304 303 306 298 298 296 294 292 290 288 286 285 283 282 281 280
74 77 77 76 72 67 64 68 66 60 63 55 48 56 53 55 61 58 88 148 188 199 248 276 272 286 293 295 303 302 295 291 287 291 293 291 290 288 287 285 285 284 283
76 78 78 76 73 68 61 61 58 51 50 45 33 31 22 18 9 317 242 235 228 217 235 278 290 294 288 294 296 299 299 298 294 292 292 292 291 290 289 289 288 286 284
79 78 80 78 74 70 64 59 58 51 43 31 18 10 350 342 321 294 272 263 258 250 230 260 286 288 287 290 297 297 298 296 296 294 294 292 292 294 294 292 289 285 279
83 80 80 80 75 69 63 56 52 43 31 21 10 358 339 314 292 289 284 280 277 280 274 275 287 292 288 289 285 299 307 308 305 302 295 294 294 295 293 291 290 288 283
84 81 79 70 61 60 54 53 44 34 21 9 1 353 337 335 338 320 307 290 282 288 295 295 294 295 296 300 301 299 301 306 302 291 296 300 298 294 293 292 290 287 285
66 64 59 53 40 35 37 44 47 29 14 3 350 342 333 338 340 336 328 319 307 299 294 288 288 290 293 294 295 296 299 303 304 299 301 303 299 296 296 290 285 286 286
55 50 36 31 14 354 10 20 31 31 4 350 339 333 330 330 334 323 318 316 308 298 286 276 275 277 283 288 292 295 296 297 295 300 302 297 300 300 301 296 293 292 291
36 12 359 358 353 348 2 7 11 11 346 335 329 318 313 313 316 322 316 308 303 298 292 279 262 271 275 281 280 282 289 292 289 287 279 284 299 305 307 302 294 292 294
16 357 349 358 356 345 360 6 8 347 334 329 323 317 312 306 307 316 314 307 306 305 302 285 273 275 276 278 278 277 287 297 306 309 293 267 291 307 303 295 300 298 297
13 13 26 19 12 357 2 10 12 350 331 326 322 318 314 308 307 311 309 300 300 305 313 316 314 311 303 298 293 262 268 287 299 302 288 282 290 308 298 286 300 307 308